User: anonymous   Login
Location: Brachbach
(49.1847°N, 9.7240°E)
Time: 08:47:09
(UTC+00:00)
Language:

H-2A R/B - Orbit

View from above orbital plane
View from above orbital plane
View from above satellite
View from above satellite

Ground track
Ground track

The orbit data is extracted from the following two-line orbital elements,

1 38341U 12025E   24196.83356054  .00004645  00000-0  49036-3 0  9999
2 38341  98.4212 110.1144 0051731 117.6579 242.9900 14.88821451658302
Epoch (UTC): 14 July 2024 20:00:19
Eccentricity: 0.0051731
inclination: 98.4212°
perigee height: 565 km
apogee height: 638 km
right ascension of ascending node: 110.1144°
argument of perigee: 117.6579°
revolutions per day: 14.88821451
mean anomaly at epoch: 242.9900°
orbit number at epoch: 65830

The dashed part of the orbit path shows where the satellite is in the earth's shadow,  

DLR